{"data":{"norad_id":52353,"epoch":"2026-09-19T17:21:23.104512Z","epoch_age_seconds":126746,"freshness":"FRESH","line1":"1 52353U 22045Y   26262.72318408  .00000375  00000+0  22728-4 0  9991","line2":"2 52353  53.1614  33.5307 0001196  76.5765 283.5370 15.33553571245270","mean_motion":15.33553571,"eccentricity":0.0001196,"inclination_deg":53.1614,"raan_deg":33.5307,"arg_perigee_deg":76.5765,"mean_anomaly_deg":283.537,"bstar":2.2728e-5,"rev_number":24527,"period_min":93.899556378784,"perigee_km":464.40169710985,"apogee_km":466.03862814315,"semimajor_km":6843.3571626265,"source":"CELESTRAK","updated_at":"2026-09-20T09:00:40.025212Z"}}